SCP
-0 -0 0 0 0 0 0 0 0 0 0 -0 0 0 0 0 -0 -0 -0 -0 -0 -0 -0 -0 -0 -0 -0 0 0 0 0 0 0 0 -0 -0 -0 0 0 -0 -0 -0 -0
0 0 0 0 0 -0 0 0 0 -0 0 0 -0 0 0 0 -0 -0 -0 -0 -0 -0 -0 -0 -0 -0 -0 -0 -0 -0 -0 0 0 0 0 0 0 -0 -0 -0 -0 0 -0
-0 -0 -0 0 0 -0 -0 -0 0 0 0 0 0 0 0 0 0 0 -0 -0 -0 -0 -0 -0 -0 -0 -0 -0 -0 -0 -0 -0 -0 0 0 -0 0 0 0 0 -0 0 -0
-0 -0 0 -0 0 0 0 0 0 0 0 0 0 0 0 0 0 0 0 0 0 0 0 0 0 0 0 0 0 -0 -0 -0 -0 -0 -0 0 0 0 0 -0 -0 0 -0
0 0 0 -0 -0 -0 0 0 0 0 0 0 0 0 0 0 0 0 0 0 0 0 0 0 0 0 0 0 0 0 0 0 0 -0 -0 -0 0 0 0 0 0 0 -0
0 0 -0 -0 -0 -0 0 0 0 0 0 0 0 0 0 0 0 0 0 0 0 0 0 0 0 0 0 0 0 0 0 0 0 -0 0 0 0 0 0 0 -0 0 -0
0 0 0 -0 -0 -0 0 0 0 0 0 0 0 0 0 0 0 0 0 0 0 0 0 0 0 0 0 0 0 0 0 0 0 -0 -0 -0 0 -0 0 -0 0 -0 -0
-0 0 0 -0 -0 -0 -0 0 0 0 0 0 0 0 0 0 0 0 0 0 0 0 0 0 0 0 0 0 0 0 -0 0 0 0 0 0 0 -0 -0 -0 -0 -0 -0
-0 -0 0 0 0 -0 -0 -0 -0 -0 0 0 0 0 0 0 0 0 0 0 0 0 0 0 0 0 0 0 0 0 0 0 0 0 -0 -0 0 -0 -0 -0 -0 -0 -0
-0 -0 -0 -0 -0 -0 0 -0 -0 -0 -0 0 0 0 0 0 0 0 0 0 0 0 0 0 0 0 -0 0 0 -0 0 0 0 0 0 -0 -0 0 -0 -0 -0 -0 -1
0 -0 -0 -0 -0 -0 -0 0 -0 -0 -0 0 0 0 0 0 0 0 0 -0 0 0 0 0 0 0 0 1 0 0 0 0 -0 0 0 0 0 0 -0 0 -0 0 -0
0 0 0 -0 -0 -0 -0 -0 -0 -0 -0 0 0 0 0 0 0 0 0 -0 0 0 0 0 0 0 0 0 0 0 0 0 0 0 0 -0 0 0 0 -0 -0 0 -0
0 0 0 0 0 0 0 -0 -0 -0 -0 -0 0 0 0 0 0 0 0 0 0 0 1 0 0 0 0 0 0 0 0 0 0 0 0 0 0 0 0 -0 -0 0 0
-0 0 0 0 0 0 -0 -0 -0 -0 -0 -0 -0 0 0 0 0 0 0 0 0 0 -0 -0 0 0 0 0 0 0 0 0 0 0 0 0 0 0 0 -0 -0 -0 0
-0 -0 -0 -0 0 0 -0 0 -0 -0 -0 -0 0 0 0 0 0 0 0 0 0 -0 -0 0 0 0 0 0 0 0 0 0 0 0 0 0 0 0 0 0 0 0 0
-0 -0 -0 -0 -0 -0 -0 -0 -0 -0 -0 0 0 0 -0 -0 -0 -0 0 0 -0 -0 0 0 0 0 0 0 0 0 0 0 0 0 0 0 0 0 1 1 0 0 0
-0 -0 -0 -0 -0 -0 -0 -0 -0 -0 -0 -0 -0 -0 -0 -0 -0 -0 -0 0 -0 -0 0 0 0 0 0 0 0 0 0 0 0 0 0 0 1 0 1 0 0 0 0
-0 -0 -0 -0 -0 -0 -0 -0 -0 0 -0 0 -0 -0 -0 -0 -0 0 0 0 0 0 0 0 0 0 0 0 0 0 0 0 0 0 0 0 0 0 0 1 0 0 0
-0 -0 -0 -0 -0 -0 -0 -0 0 0 0 0 0 0 -0 -0 -0 0 -0 0 -0 0 0 -0 0 0 0 0 0 0 0 0 0 0 0 0 0 0 0 1 1 0 0
-0 -0 -0 -0 -0 -0 0 -0 -0 -0 0 0 0 -0 -0 0 -0 0 -0 -0 -0 0 0 0 0 0 0 0 0 -0 0 0 0 0 0 0 0 0 0 0 0 0 0
-0 -0 -0 -0 -0 -0 0 0 -0 0 0 -0 -0 -0 -0 -0 -0 -0 0 -0 0 -0 0 0 0 -0 -0 0 0 0 0 0 0 0 0 0 0 0 0 0 0 0 0
-0 -0 -0 -0 -0 -0 -0 0 -0 -0 -0 -0 -0 -0 -0 0 -0 -0 -0 -0 -0 -0 -0 0 -0 -0 -0 0 0 0 0 -0 0 0 0 0 0 0 0 0 0 0 0
-0 -0 -0 -0 -0 -0 -0 -0 -0 -0 -0 -0 -0 0 -0 -0 -0 -0 -0 -0 -0 -0 0 -0 0 -0 0 0 -0 0 0 -0 -0 0 0 0 0 0 0 0 0 0 0
-0 -0 -0 -0 -0 -0 -0 0 0 -0 -0 -0 -0 -0 -0 -0 -0 -0 -0 -0 -0 0 0 0 0 0 0 0 -0 0 0 0 0 0 0 0 0 0 0 0 0 0 0
-0 -0 -0 -0 -0 -0 -0 -0 0 -0 -0 -0 -0 -0 0 0 -0 -0 -0 0 0 -0 0 0 -0 -0 0 0 0 0 0 0 0 0 0 0 0 0 0 0 0 0 0
0 0 0 0 0 0 0 0 0 0 -0 -0 -0 0 -0 -0 -0 0 0 -0 -0 -0 -0 -0 -0 -0 -0 -0 0 0 0 0 0 0 0 0 0 0 0 0 0 0 0
Wind_Speed_500mb
51 59 54 51 51 52 49 52 53 48 44 40 37 35 33 31 29 28 28 31 32 30 27 26 24 18 15 14 14 15 17 19 19 18 15 10 8 11 17 21 18 19 20
60 62 51 46 47 48 48 50 47 40 40 37 32 32 30 30 30 29 28 29 28 27 26 24 21 18 16 17 18 18 20 22 24 23 21 18 16 15 13 13 14 18 18
59 59 51 46 44 44 45 46 42 36 35 33 31 29 28 27 28 27 26 25 23 20 18 18 16 14 14 14 16 17 16 19 21 19 22 18 14 13 13 14 16 16 19
60 58 52 46 43 43 43 42 37 32 30 27 26 25 24 25 24 22 20 17 15 13 11 10 7 5 5 6 9 12 13 15 18 17 14 15 10 11 14 16 16 14 18
59 54 50 45 43 41 42 39 34 29 26 23 22 22 19 19 16 13 11 10 9 7 5 4 4 4 4 5 6 10 13 16 16 12 10 12 4 7 10 13 13 15 18
58 53 48 45 44 41 42 35 29 24 21 21 21 19 14 11 9 8 8 7 7 5 6 5 4 3 3 4 6 8 13 16 17 12 9 13 11 8 7 9 14 16 20
57 53 49 45 44 41 36 30 25 24 21 19 17 13 10 10 9 8 9 10 9 9 9 7 7 6 4 4 6 9 14 21 22 18 14 10 13 11 9 10 13 18 18
54 51 48 46 42 37 30 26 23 20 17 14 12 11 12 15 14 13 12 13 12 11 9 9 8 7 7 5 2 3 7 16 24 17 18 18 19 23 9 12 17 18 21
45 47 47 46 42 36 29 25 21 17 14 11 13 16 18 20 16 14 13 15 12 10 8 6 5 5 4 4 3 5 7 11 17 21 24 25 26 22 29 18 22 22 22
41 39 40 40 39 37 30 24 19 16 14 16 20 23 20 14 14 14 15 12 11 9 10 6 3 2 2 1 7 11 9 13 19 24 30 20 28 31 39 36 28 26 25
41 36 33 32 32 30 27 23 19 17 18 20 23 20 12 7 9 11 12 10 7 6 5 6 7 6 5 7 18 16 8 6 11 4 11 27 15 22 30 36 34 33 33
40 35 34 32 29 31 29 27 26 21 19 18 18 17 11 9 10 8 7 7 3 3 3 6 11 12 12 16 23 13 2 3 13 9 6 25 18 20 34 33 25 36 35
34 35 37 32 26 32 31 35 24 22 20 15 12 12 8 8 2 3 5 6 9 12 7 9 6 7 13 16 23 6 10 8 6 12 7 5 20 24 19 27 26 29 35
41 32 34 29 32 28 25 28 19 15 9 7 8 6 9 5 0 5 11 7 18 3 4 3 4 6 9 24 15 7 12 12 7 8 4 4 9 12 16 17 22 26 31
38 38 35 31 29 28 24 20 12 17 10 6 4 2 4 4 4 11 9 4 1 3 8 3 4 8 13 13 20 22 10 12 10 6 2 2 7 10 12 16 20 23 26
41 44 39 37 31 22 29 24 14 15 12 7 6 6 4 5 14 16 14 10 3 5 4 3 6 12 17 14 18 14 13 13 11 4 1 6 8 9 11 15 13 18 18
50 47 42 45 36 32 34 33 28 20 14 12 8 8 9 10 13 13 11 13 7 9 6 10 10 11 15 11 7 13 12 2 6 4 3 15 13 10 10 10 13 16 16
53 57 47 48 40 44 41 35 36 33 26 17 14 20 3 3 3 5 9 6 6 4 11 4 5 10 14 10 4 13 5 5 8 10 4 10 12 15 18 14 18 18 19
55 55 48 47 41 37 47 39 36 35 24 16 16 17 12 9 9 6 8 11 7 5 8 5 11 10 14 8 8 4 7 11 12 13 6 7 7 17 26 27 25 21 22
53 52 44 41 34 21 34 38 44 33 28 22 14 14 11 4 3 4 9 13 4 1 9 4 7 12 14 18 20 26 16 18 15 7 11 12 7 14 20 23 26 27 25
53 50 44 41 36 32 32 45 45 35 24 24 23 17 13 2 8 0 3 13 6 8 6 13 17 11 11 18 21 22 20 11 10 7 15 18 13 14 18 20 25 29 29
54 49 46 43 39 38 28 34 36 32 26 22 24 23 15 13 10 8 8 11 11 8 12 18 10 8 7 16 16 9 6 9 6 19 17 18 20 18 15 20 22 26 27
58 55 51 45 43 39 29 33 35 31 24 12 17 23 17 11 10 13 8 13 13 15 22 17 8 10 11 8 14 10 3 5 19 3 17 16 25 26 24 22 19 23 21
63 54 46 38 43 40 32 40 39 33 27 23 16 19 19 16 12 12 12 14 10 16 16 12 5 9 11 12 13 10 6 8 8 4 12 23 28 28 29 23 21 22 19
65 58 43 30 37 42 40 39 42 36 30 24 29 15 25 29 30 18 12 20 24 25 18 18 9 5 12 13 16 9 9 14 18 13 17 19 27 30 29 26 25 21 19
69 58 45 38 34 39 43 41 44 36 30 26 28 18 18 15 18 20 25 23 28 22 22 22 20 12 13 14 13 9 12 16 16 19 22 25 24 28 27 23 21 19 24
Wind_Direction_500mb
148 148 139 134 132 131 128 131 128 124 126 129 129 128 127 125 124 119 118 116 113 114 114 114 122 126 123 123 118 114 111 112 117 129 134 132 129 153 157 145 139 136 141
149 154 148 137 138 135 135 140 135 128 126 128 130 122 122 121 116 116 117 117 117 116 114 111 113 113 110 113 121 119 121 123 123 128 129 125 137 149 149 157 145 143 150
151 154 156 146 143 140 142 141 140 135 130 127 131 121 121 120 118 117 117 119 121 119 115 113 109 110 112 117 131 137 132 131 133 131 135 124 150 166 176 172 180 167 163
154 155 157 152 150 149 146 148 147 140 138 132 131 131 118 119 118 117 117 118 122 120 116 112 118 137 149 156 135 133 146 146 150 156 152 145 153 171 172 180 184 178 177
157 156 156 155 157 150 151 149 143 140 135 130 129 124 121 119 119 119 119 122 121 117 119 129 157 186 180 180 179 170 167 177 184 183 147 166 166 179 188 191 200 191 190
159 158 155 156 157 153 151 152 153 150 142 131 130 127 123 125 124 115 107 98 83 80 74 64 64 96 132 166 181 189 192 186 185 177 179 182 208 220 212 209 206 205 198
160 163 157 155 156 156 155 156 156 153 148 143 136 129 131 119 108 100 99 92 83 68 57 48 47 45 73 105 148 165 194 194 183 194 219 199 194 214 234 228 219 214 208
160 164 162 162 161 160 161 164 161 157 151 148 140 138 128 109 100 95 86 73 61 59 63 64 55 62 88 95 103 165 185 210 211 203 224 263 245 230 245 240 237 223 220
162 164 168 171 169 168 168 165 161 163 159 151 145 136 119 106 92 81 81 69 64 60 59 51 62 86 143 126 239 270 256 245 225 232 222 233 244 254 253 237 242 231 228
160 164 165 173 172 170 168 162 162 166 162 159 149 132 118 113 92 73 75 75 65 67 60 35 6 108 217 246 305 245 243 236 239 247 256 253 246 246 255 247 240 245 243
160 161 162 168 169 168 163 159 158 156 155 157 146 131 117 97 80 86 80 63 69 44 35 44 12 307 314 339 339 290 288 318 183 22 311 248 227 248 253 251 252 254 250
157 165 163 160 164 165 160 149 142 141 152 158 161 143 139 117 104 73 51 16 51 15 357 350 47 338 330 19 15 322 307 189 307 341 295 221 258 257 247 246 247 250 255
154 151 161 160 154 150 152 144 142 146 127 125 167 174 183 168 138 178 301 339 340 334 4 330 335 316 296 334 343 324 12 328 321 341 243 223 249 252 266 262 267 261 260
171 170 161 163 170 161 147 155 152 156 133 128 133 101 115 109 109 310 311 343 344 143 150 6 348 298 4 23 351 347 276 330 354 315 292 245 295 248 282 280 278 276 266
188 185 177 177 169 170 171 167 210 198 172 139 51 133 95 149 228 254 265 282 51 77 132 135 340 324 335 324 328 334 296 288 307 315 239 199 255 255 287 300 287 283 267
196 194 186 191 193 200 186 190 192 182 178 203 224 277 303 337 216 241 283 314 256 199 186 168 349 16 3 337 312 323 313 287 247 233 222 343 345 345 316 301 309 301 289
198 199 198 194 201 208 191 200 198 192 219 231 216 263 244 330 262 260 267 344 320 274 296 325 295 347 342 337 354 331 272 99 196 198 61 43 31 20 345 331 314 313 312
197 198 200 200 204 215 214 217 211 200 204 220 241 261 292 327 258 360 12 99 12 306 332 325 12 49 57 27 359 20 337 257 142 169 51 41 42 39 23 350 339 327 334
198 199 202 205 215 230 225 224 195 191 195 197 242 240 294 253 295 305 360 349 12 347 135 33 358 356 28 51 51 321 252 219 163 169 121 335 17 26 22 11 353 336 337
202 204 209 214 219 203 209 197 187 194 206 207 216 228 267 271 283 287 348 8 317 9 176 351 5 358 18 38 60 64 73 188 185 256 329 317 333 3 5 2 353 341 331
198 203 211 216 216 214 202 193 194 193 193 202 216 239 229 302 202 21 82 337 296 294 267 316 315 350 31 47 80 85 90 183 216 308 308 319 308 320 336 349 351 344 335
200 208 214 219 218 217 216 205 201 199 201 229 228 239 245 249 237 230 288 270 290 306 295 303 308 329 32 53 28 59 124 166 247 268 288 297 284 288 301 330 339 343 342
200 207 215 222 214 214 211 196 195 206 208 236 241 223 222 236 240 237 249 274 281 296 303 301 94 45 38 56 35 29 358 336 349 246 255 280 275 280 301 316 324 334 332
206 210 219 225 218 217 212 203 199 208 222 236 218 220 228 238 245 241 227 251 281 306 335 0 336 352 6 13 14 350 330 328 319 277 257 261 272 277 283 300 324 326 331
204 208 214 222 224 219 217 213 210 219 229 234 235 232 238 249 251 252 254 241 256 276 318 327 317 319 338 341 331 329 320 305 321 304 301 267 267 275 282 296 312 323 327
204 205 208 217 225 219 217 217 216 218 219 219 212 218 217 215 232 253 274 256 254 270 288 296 308 299 314 300 292 304 323 296 307 294 284 304 285 279 275 278 309 317 315
Wind_Speed_850mb
51 59 54 51 51 52 49 52 53 48 44 40 37 35 33 31 29 28 28 31 32 30 27 26 24 18 15 14 14 15 17 19 19 18 15 10 8 11 17 21 18 19 20
60 62 51 46 47 48 48 50 47 40 40 37 32 32 30 30 30 29 28 29 28 27 26 24 21 18 16 17 18 18 20 22 24 23 21 18 16 15 13 13 14 18 18
59 59 51 46 44 44 45 46 42 36 35 33 31 29 28 27 28 27 26 25 23 20 18 18 16 14 14 14 16 17 16 19 21 19 22 18 14 13 13 14 16 16 19
60 58 52 46 43 43 43 42 37 32 30 27 26 25 24 25 24 22 20 17 15 13 11 10 7 5 5 6 9 12 13 15 18 17 14 15 10 11 14 16 16 14 18
59 54 50 45 43 41 42 39 34 29 26 23 22 22 19 19 16 13 11 10 9 7 5 4 4 4 4 5 6 10 13 16 16 12 10 12 4 7 10 13 13 15 18
58 53 48 45 44 41 42 35 29 24 21 21 21 19 14 11 9 8 8 7 7 5 6 5 4 3 3 4 6 8 13 16 17 12 9 13 11 8 7 9 14 16 20
57 53 49 45 44 41 36 30 25 24 21 19 17 13 10 10 9 8 9 10 9 9 9 7 7 6 4 4 6 9 14 21 22 18 14 10 13 11 9 10 13 18 18
54 51 48 46 42 37 30 26 23 20 17 14 12 11 12 15 14 13 12 13 12 11 9 9 8 7 7 5 2 3 7 16 24 17 18 18 19 23 9 12 17 18 21
45 47 47 46 42 36 29 25 21 17 14 11 13 16 18 20 16 14 13 15 12 10 8 6 5 5 4 4 3 5 7 11 17 21 24 25 26 22 29 18 22 22 22
41 39 40 40 39 37 30 24 19 16 14 16 20 23 20 14 14 14 15 12 11 9 10 6 3 2 2 1 7 11 9 13 19 24 30 20 28 31 39 36 28 26 25
41 36 33 32 32 30 27 23 19 17 18 20 23 20 12 7 9 11 12 10 7 6 5 6 7 6 5 7 18 16 8 6 11 4 11 27 15 22 30 36 34 33 33
40 35 34 32 29 31 29 27 26 21 19 18 18 17 11 9 10 8 7 7 3 3 3 6 11 12 12 16 23 13 2 3 13 9 6 25 18 20 34 33 25 36 35
34 35 37 32 26 32 31 35 24 22 20 15 12 12 8 8 2 3 5 6 9 12 7 9 6 7 13 16 23 6 10 8 6 12 7 5 20 24 19 27 26 29 35
41 32 34 29 32 28 25 28 19 15 9 7 8 6 9 5 0 5 11 7 18 3 4 3 4 6 9 24 15 7 12 12 7 8 4 4 9 12 16 17 22 26 31
38 38 35 31 29 28 24 20 12 17 10 6 4 2 4 4 4 11 9 4 1 3 8 3 4 8 13 13 20 22 10 12 10 6 2 2 7 10 12 16 20 23 26
41 44 39 37 31 22 29 24 14 15 12 7 6 6 4 5 14 16 14 10 3 5 4 3 6 12 17 14 18 14 13 13 11 4 1 6 8 9 11 15 13 18 18
50 47 42 45 36 32 34 33 28 20 14 12 8 8 9 10 13 13 11 13 7 9 6 10 10 11 15 11 7 13 12 2 6 4 3 15 13 10 10 10 13 16 16
53 57 47 48 40 44 41 35 36 33 26 17 14 20 3 3 3 5 9 6 6 4 11 4 5 10 14 10 4 13 5 5 8 10 4 10 12 15 18 14 18 18 19
55 55 48 47 41 37 47 39 36 35 24 16 16 17 12 9 9 6 8 11 7 5 8 5 11 10 14 8 8 4 7 11 12 13 6 7 7 17 26 27 25 21 22
53 52 44 41 34 21 34 38 44 33 28 22 14 14 11 4 3 4 9 13 4 1 9 4 7 12 14 18 20 26 16 18 15 7 11 12 7 14 20 23 26 27 25
53 50 44 41 36 32 32 45 45 35 24 24 23 17 13 2 8 0 3 13 6 8 6 13 17 11 11 18 21 22 20 11 10 7 15 18 13 14 18 20 25 29 29
54 49 46 43 39 38 28 34 36 32 26 22 24 23 15 13 10 8 8 11 11 8 12 18 10 8 7 16 16 9 6 9 6 19 17 18 20 18 15 20 22 26 27
58 55 51 45 43 39 29 33 35 31 24 12 17 23 17 11 10 13 8 13 13 15 22 17 8 10 11 8 14 10 3 5 19 3 17 16 25 26 24 22 19 23 21
63 54 46 38 43 40 32 40 39 33 27 23 16 19 19 16 12 12 12 14 10 16 16 12 5 9 11 12 13 10 6 8 8 4 12 23 28 28 29 23 21 22 19
65 58 43 30 37 42 40 39 42 36 30 24 29 15 25 29 30 18 12 20 24 25 18 18 9 5 12 13 16 9 9 14 18 13 17 19 27 30 29 26 25 21 19
69 58 45 38 34 39 43 41 44 36 30 26 28 18 18 15 18 20 25 23 28 22 22 22 20 12 13 14 13 9 12 16 16 19 22 25 24 28 27 23 21 19 24
Wind_Direction_850mb
148 148 139 134 132 131 128 131 128 124 126 129 129 128 127 125 124 119 118 116 113 114 114 114 122 126 123 123 118 114 111 112 117 129 134 132 129 153 157 145 139 136 141
149 154 148 137 138 135 135 140 135 128 126 128 130 122 122 121 116 116 117 117 117 116 114 111 113 113 110 113 121 119 121 123 123 128 129 125 137 149 149 157 145 143 150
151 154 156 146 143 140 142 141 140 135 130 127 131 121 121 120 118 117 117 119 121 119 115 113 109 110 112 117 131 137 132 131 133 131 135 124 150 166 176 172 180 167 163
154 155 157 152 150 149 146 148 147 140 138 132 131 131 118 119 118 117 117 118 122 120 116 112 118 137 149 156 135 133 146 146 150 156 152 145 153 171 172 180 184 178 177
157 156 156 155 157 150 151 149 143 140 135 130 129 124 121 119 119 119 119 122 121 117 119 129 157 186 180 180 179 170 167 177 184 183 147 166 166 179 188 191 200 191 190
159 158 155 156 157 153 151 152 153 150 142 131 130 127 123 125 124 115 107 98 83 80 74 64 64 96 132 166 181 189 192 186 185 177 179 182 208 220 212 209 206 205 198
160 163 157 155 156 156 155 156 156 153 148 143 136 129 131 119 108 100 99 92 83 68 57 48 47 45 73 105 148 165 194 194 183 194 219 199 194 214 234 228 219 214 208
160 164 162 162 161 160 161 164 161 157 151 148 140 138 128 109 100 95 86 73 61 59 63 64 55 62 88 95 103 165 185 210 211 203 224 263 245 230 245 240 237 223 220
162 164 168 171 169 168 168 165 161 163 159 151 145 136 119 106 92 81 81 69 64 60 59 51 62 86 143 126 239 270 256 245 225 232 222 233 244 254 253 237 242 231 228
160 164 165 173 172 170 168 162 162 166 162 159 149 132 118 113 92 73 75 75 65 67 60 35 6 108 217 246 305 245 243 236 239 247 256 253 246 246 255 247 240 245 243
160 161 162 168 169 168 163 159 158 156 155 157 146 131 117 97 80 86 80 63 69 44 35 44 12 307 314 339 339 290 288 318 183 22 311 248 227 248 253 251 252 254 250
157 165 163 160 164 165 160 149 142 141 152 158 161 143 139 117 104 73 51 16 51 15 357 350 47 338 330 19 15 322 307 189 307 341 295 221 258 257 247 246 247 250 255
154 151 161 160 154 150 152 144 142 146 127 125 167 174 183 168 138 178 301 339 340 334 4 330 335 316 296 334 343 324 12 328 321 341 243 223 249 252 266 262 267 261 260
171 170 161 163 170 161 147 155 152 156 133 128 133 101 115 109 109 310 311 343 344 143 150 6 348 298 4 23 351 347 276 330 354 315 292 245 295 248 282 280 278 276 266
188 185 177 177 169 170 171 167 210 198 172 139 51 133 95 149 228 254 265 282 51 77 132 135 340 324 335 324 328 334 296 288 307 315 239 199 255 255 287 300 287 283 267
196 194 186 191 193 200 186 190 192 182 178 203 224 277 303 337 216 241 283 314 256 199 186 168 349 16 3 337 312 323 313 287 247 233 222 343 345 345 316 301 309 301 289
198 199 198 194 201 208 191 200 198 192 219 231 216 263 244 330 262 260 267 344 320 274 296 325 295 347 342 337 354 331 272 99 196 198 61 43 31 20 345 331 314 313 312
197 198 200 200 204 215 214 217 211 200 204 220 241 261 292 327 258 360 12 99 12 306 332 325 12 49 57 27 359 20 337 257 142 169 51 41 42 39 23 350 339 327 334
198 199 202 205 215 230 225 224 195 191 195 197 242 240 294 253 295 305 360 349 12 347 135 33 358 356 28 51 51 321 252 219 163 169 121 335 17 26 22 11 353 336 337
202 204 209 214 219 203 209 197 187 194 206 207 216 228 267 271 283 287 348 8 317 9 176 351 5 358 18 38 60 64 73 188 185 256 329 317 333 3 5 2 353 341 331
198 203 211 216 216 214 202 193 194 193 193 202 216 239 229 302 202 21 82 337 296 294 267 316 315 350 31 47 80 85 90 183 216 308 308 319 308 320 336 349 351 344 335
200 208 214 219 218 217 216 205 201 199 201 229 228 239 245 249 237 230 288 270 290 306 295 303 308 329 32 53 28 59 124 166 247 268 288 297 284 288 301 330 339 343 342
200 207 215 222 214 214 211 196 195 206 208 236 241 223 222 236 240 237 249 274 281 296 303 301 94 45 38 56 35 29 358 336 349 246 255 280 275 280 301 316 324 334 332
206 210 219 225 218 217 212 203 199 208 222 236 218 220 228 238 245 241 227 251 281 306 335 0 336 352 6 13 14 350 330 328 319 277 257 261 272 277 283 300 324 326 331
204 208 214 222 224 219 217 213 210 219 229 234 235 232 238 249 251 252 254 241 256 276 318 327 317 319 338 341 331 329 320 305 321 304 301 267 267 275 282 296 312 323 327
204 205 208 217 225 219 217 217 216 218 219 219 212 218 217 215 232 253 274 256 254 270 288 296 308 299 314 300 292 304 323 296 307 294 284 304 285 279 275 278 309 317 315